Torna al catalogo

SL-12 DEB

LostHEO
NORAD 29474·DEBRIS·🇷🇺 Russia

Lanciato May 31, 1989 da Baikonur Cosmodrome

Loading…

Prossimi Passaggi (prossime 24 ore)

TLE

ObsoletoSource: Space-Track

Epoca: Nov 12, 2010, 05:06 UTC

1 29474U 89039DU  10316.21285869 -.00017067 +00000-0 -21890-2 0  9992
2 29474 066.3340 331.8530 5136392 285.5931 024.3233 05.41447073073647

Traccia SL-12 DEB in tempo reale con AllMySat

Download on the App Store